Location: Izdebno
(52.6670°N, 16.2170°E)
Time: 04:53:14
(UTC+02:00)

A-11 Canister half - Pass Details

Date: 17 February 2023
Orbit: 1526 x 1682 km, 47.3° (Epoch: 25 March)

Event Time Altitude Azimuth Distance (km) Brightness Sun altitude
Rises 00:50:31 0° 197° (SSW) 4,725 - -48.6°
Reaches altitude 10° 00:54:20 10° 185° (S) 3,724 - -48.5°
Maximum altitude 01:01:18 24° 136° (SE) 2,749 - -48.2°
Exits shadow 01:06:52 14° 93° (E) 3,391 10.9 -47.9°
Drops below altitude 10° 01:08:13 10° 87° (E) 3,697 11.1 -47.8°
Sets 01:11:58 0° 75° (ENE) 4,683 11.9 -47.6°
